User: anonymous   Login
Location: Unspecified
(0.0000°N, 0.0000°E)
Time: 00:05:53
(UTC+00:00)
Language:

SMS 1 - Orbit

View from above orbital plane
View from above orbital plane
View from above satellite
View from above satellite

Ground track
Ground track

The orbit data is extracted from the following two-line orbital elements,

1 07298U 74033A   18261.40248229 -.00000257  00000-0  00000+0 0  9996
2 07298  11.1222 300.0447 0019675 346.2547   9.0189  0.98615005 91971
Epoch (UTC): 18 September 2018 09:39:34
Eccentricity: 0.0019675
inclination: 11.1222°
perigee height: 36173 km
apogee height: 36341 km
right ascension of ascending node: 300.0447°
argument of perigee: 346.2547°
revolutions per day: 0.98615005
mean anomaly at epoch: 9.0189°
orbit number at epoch: 9197

The dashed part of the orbit path shows where the satellite is in the earth's shadow,  

DLR